Location: Monrovia
(34.7865°N, 86.7139°W)
Time: 14:33:39
(UTC+00:00)

Cosmos 1570 Rocket - Pass Details

Date: 14 July 2020
Orbit: 763 x 788 km, 74.1° (Epoch: 13 August)

Event Time Altitude Azimuth Distance (km) Brightness Sun altitude
Rises 09:21:00 0° 345° (NNW) 3,245 7.6 -15.1°
Reaches altitude 10° 09:23:24 10° 348° (NNW) 2,318 6.9 -14.7°
Maximum altitude 09:28:38 68° 72° (ENE) 831 4.4 -13.9°
Drops below altitude 10° 09:33:53 10° 155° (SSE) 2,321 6.4 -13.0°
Sets 09:36:17 0° 158° (SSE) 3,248 7.1 -12.6°
